Вернуться в каталог

STARLINK-37743

АктивенСвязьSSO
NORAD 69339·PAYLOAD·🇺🇸 United States

Запущен Jun 3, 2026 с Vandenberg Space Force Base

Loading…

Ближайшие Пролёты (ближайшие 24 часа)

TLE

СвежийSource: CelesTrak SupGP

Эпоха: Sep 15, 2026, 03:17 UTC

1 69339C 26122L   26258.13729167 -.00036226  00000+0 -11245-2 0  2585
2 69339  97.2823 286.8207 0001454  89.6830  16.1588 15.33458701    11

Отслеживайте STARLINK-37743 в реальном времени с AllMySat

Download on the App Store